[[{"header":{"parameterUnit":"m.s-1","parameterCategory":1,"la1":30.2991,"la2":30.254,"lo1":-89.0895,"lo2":-89.0444,"dy":0.0017,"dx":0.0017,"nx":28,"ny":28,"refTime":"2025-09-08T09:00:00:Z","depth":0,"parameterNumber":2,"parameterNumberName":"U-component_of_WINDS"},"data":[0,0,0,0,0,0,0,0,0,0,0,0,0,0,0,0,0,0,0,0,0,0,0,0,0,0,0,0,0,0,0,0,0,0,0,0,0,0,0,0,0,0,0,0,0,0,0,0,0,0,0,0,0,0,0,0,0,0,-2.0844,-2.0843,0,-2.082,-2.082,-2.082,-2.0744,-2.0742,-2.074,-2.0739,-2.0717,-2.0718,-2.0719,0,0,0,0,0,0,0,0,0,0,0,0,0,-2.0823,-2.0824,-2.0844,-2.0843,-2.0843,-2.082,-2.082,-2.082,-2.0744,-2.0742,-2.074,-2.0738,-2.0716,-2.0717,-2.0719,0,0,0,0,0,0,0,0,0,0,0,0,0,-2.0819,-2.0824,-2.0844,-2.0802,-2.0798,-2.0821,-2.082,-2.082,-2.0745,-2.0742,-2.0739,-2.0737,-2.0716,-2.0717,-2.0719,-2.0779,0,0,-2.0723,-2.0724,0,0,0,0,0,0,0,0,-2.082,-2.082,-2.0809,-2.0805,-2.0801,-2.0782,-2.0805,-2.0806,-2.0745,-2.0765,-2.0739,-2.0736,-2.0741,-2.074,-2.0741,-2.0778,-2.0777,-2.0724,-2.0724,-2.0725,-2.0725,0,0,0,0,0,0,0,-2.082,-2.0821,-2.0834,-2.0809,-2.0804,-2.0785,-2.0782,-2.0805,-2.0768,-2.0763,-2.0758,-2.0756,-2.0738,-2.074,-2.074,-2.0777,-2.0723,-2.0725,-2.0726,-2.0726,-2.0861,-2.0864,0,0,0,0,0,0,-2.0826,-2.0821,-2.0835,-2.0834,-2.0804,-2.0788,-2.0784,-2.0791,-2.0767,-2.0761,-2.0758,-2.0752,-2.0739,-2.0739,-2.0739,-2.0807,-2.0725,-2.0726,-2.0727,-2.0858,-2.0862,-2.0865,0,0,0,0,0,0,-2.0826,-2.0828,-2.0836,-2.0826,-2.0826,-2.0791,-2.0799,-2.0792,-2.0794,-2.0763,-2.0756,-2.0767,-2.0737,-2.0737,-2.0769,-2.0805,-2.0727,-2.0728,-2.0855,-2.0859,-2.0863,-2.0944,0,0,0,0,0,0,-2.0825,-2.0828,-2.0851,-2.0827,-2.0826,-2.0867,-2.0801,-2.0793,-2.0796,-2.0789,-2.077,-2.0764,-2.0735,-2.0768,-2.0771,-2.0806,-2.073,-2.0852,-2.0857,-2.0862,-2.0938,-2.095,-2.0961,0,0,0,0,0,-2.0825,-2.0875,-2.0852,-2.0854,-2.0854,-2.0869,-2.0869,-2.0833,-2.08,-2.0822,-2.0802,-2.0765,-2.0801,-2.0772,-2.0775,-2.0811,-2.0849,-2.0856,-2.0861,-2.0933,-2.0948,-2.0961,0,0,0,0,0,0,-2.0904,-2.0871,-2.0845,-2.0889,-2.0882,-2.0856,-2.0883,-2.0851,-2.0854,-2.0847,-2.0803,-2.08,-2.0838,-2.0828,-2.0795,-2.0867,-2.0819,-2.0826,-2.0872,-2.0886,-2.0898,-2.0899,-2.0731,0,0,0,0,0,-2.0927,-2.0941,-2.0912,-2.0953,-2.0951,-2.0918,-2.0923,-2.0897,-2.0888,-2.0885,-2.0868,-2.0861,-2.0871,-2.0878,-2.0886,-2.0937,-2.0931,-2.0963,-2.0975,-2.0984,-2.099,-2.1015,-2.1028,-2.0884,-2.0884,-2.0884,0,0,-2.0973,-2.0957,-2.0969,-2.0969,-2.096,-2.0977,-2.0916,-2.0936,-2.0948,-2.0888,-2.0917,-2.0905,-2.0894,-2.0936,-2.0953,-2.0928,-2.1029,-2.0992,-2.1,-2.1,-2.1023,-2.1036,-2.1048,-2.0888,-2.0888,-2.0887,0,0,-2.1066,-2.1056,-2.1089,-2.1081,-2.1069,-2.1047,-2.1055,-2.1033,-2.1022,-2.105,-2.1006,-2.102,-2.1038,-2.1032,-2.1031,-2.1122,-2.1087,-2.1126,-2.1185,-2.121,-2.1221,-2.1231,-2.1262,-2.1274,-2.1132,-2.1133,-2.1133,0,-2.1126,-2.1148,-2.111,-2.1132,-2.1133,-2.108,-2.1112,-2.1107,-2.1099,-2.1101,-2.1073,-2.1094,-2.1083,-2.1122,-2.1144,-2.1146,-2.1153,-2.1127,-2.1223,-2.1232,-2.1241,-2.127,-2.1282,-2.1137,-2.1137,-2.1136,-2.1136,0,-2.1221,-2.1237,-2.1265,-2.1257,-2.1261,-2.1289,-2.1255,-2.1264,-2.1238,-2.1218,-2.1247,-2.1233,-2.1236,-2.1244,-2.1219,-2.1279,-2.1264,-2.123,-2.1181,-2.126,-2.1286,-2.1297,-2.1144,-2.1142,-2.1141,-2.114,0,0,-2.1362,-2.1332,-2.1343,-2.1338,-2.1321,-2.1333,-2.1358,-2.136,-2.1368,-2.1365,-2.1384,-2.1401,-2.1369,-2.1369,-2.1343,-2.1365,-2.1436,-2.1328,-2.1327,-2.1347,-2.15,-2.1524,-2.1538,-2.1413,-2.1415,-2.1417,-2.15,0,-2.1449,-2.1489,-2.1456,-2.1502,-2.1516,-2.1466,-2.1488,-2.148,-2.1463,-2.1472,-2.1453,-2.1465,-2.1423,-2.1423,-2.1442,-2.1423,-2.1466,-2.1417,-2.1431,-2.1431,-2.1433,-2.1552,-2.1577,-2.1657,-2.1511,-2.1512,-2.1514,0,-2.1555,-2.1555,-2.1603,-2.1581,-2.1586,-2.1606,-2.1605,-2.1615,-2.1605,-2.1591,-2.159,-2.1558,-2.1581,-2.1534,-2.1565,-2.1533,-2.1537,-2.1528,-2.153,-2.1529,-2.1476,-2.1552,-2.1681,-2.1693,-2.153,-2.1529,-2.1528,0,-2.1651,-2.1663,-2.1693,-2.1691,-2.1667,-2.1682,-2.1673,-2.166,-2.1664,-2.1663,-2.1665,-2.1668,-2.1669,-2.1672,-2.1641,-2.161,-2.1676,-2.1627,-2.1664,-2.1665,-2.1679,-2.1678,-2.1809,-2.1685,-2.1685,-2.1685,-2.1684,0,-2.175,-2.1781,-2.1735,-2.1753,-2.1786,-2.1748,-2.1782,-2.1768,-2.1757,-2.1771,-2.1729,-2.1744,-2.1703,-2.1714,-2.169,-2.1719,-2.172,-2.1709,-2.1702,-2.1712,-2.1713,-2.1712,-2.1706,-2.1688,-2.1687,-2.1686,-2.1686,0,-2.1862,-2.1833,-2.1862,-2.1837,-2.1831,-2.1857,-2.1835,-2.1851,-2.1831,-2.185,-2.1853,-2.1822,-2.1832,-2.1802,-2.1808,-2.1792,-2.1833,-2.1818,-2.1836,-2.1831,-2.187,-2.1866,-2.2003,-2.2019,-2.1887,-2.1888,-2.1889,0,-2.1927,-2.1949,-2.1926,-2.1932,-2.1925,-2.1937,-2.1939,-2.1903,-2.1908,-2.1898,-2.1915,-2.1921,-2.1924,-2.1943,-2.1921,-2.1925,-2.1909,-2.1957,-2.1909,-2.1918,-2.1907,-2.1906,-2.1907,-2.1966,-2.1968,-2.1969,-2.197,0,-2.2043,-2.2027,-2.2033,-2.2033,-2.2038,-2.2036,-2.2032,-2.204,-2.2001,-2.2009,-2.2018,-2.202,-2.2026,-2.2033,-2.2032,-2.2023,-2.199,-2.1986,-2.1994,-2.2003,-2.2012,-2.2006,-2.1861,-2.1982,-2.1981,-2.198,-2.198,-2.1979,-2.2132,-2.2149,-2.2135,-2.2142,-2.2135,-2.2132,-2.2146,-2.2127,-2.2134,-2.2135,-2.2114,-2.2127,-2.2116,-2.2112,-2.2106,-2.2117,-2.2094,-2.2108,-2.211,-2.2114,-2.2119,-2.2012,-2.2117,-2.2116,-2.2116,-2.2116,-2.2115,0,-2.2244,-2.2233,-2.224,-2.2235,-2.2241,-2.221,-2.2204,-2.221,-2.2223,-2.2215,-2.2219,-2.223,-2.2236,-2.2215,-2.2218,-2.223,-2.2215,-2.2232,-2.223,-2.2228,-2.214,-2.2131,-2.2244,-2.2244,-2.2244,-2.2244,-2.2244,-2.2244,-2.2304,-2.233,-2.2313,-2.2336,-2.2324,-2.2336,-2.2335,-2.2333,-2.2326,-2.2339,-2.2344,-2.233,-2.2317,-2.2319,-2.2324,-2.2317,-2.232,-2.2342,-2.233,-2.2247,-2.2235,-2.2223,-2.2214,-2.2343,-2.2343,-2.2417,-2.2418,-2.2419]},{"header":{"parameterUnit":"m.s-1","parameterCategory":1,"la1":30.2991,"la2":30.254,"lo1":-89.0895,"lo2":-89.0444,"dy":0.0017,"dx":0.0017,"nx":28,"ny":28,"refTime":"2025-09-08T09:00:00:Z","depth":0,"parameterNumber":3,"parameterNumberName":"V-component_of_WINDS"},"data":[0,0,0,0,0,0,0,0,0,0,0,0,0,0,0,0,0,0,0,0,0,0,0,0,0,0,0,0,0,0,0,0,0,0,0,0,0,0,0,0,0,0,0,0,0,0,0,0,0,0,0,0,0,0,0,0,0,0,-2.7876,-2.7876,0,-2.787,-2.7869,-2.7869,-2.7853,-2.7852,-2.7852,-2.7852,-2.7844,-2.7845,-2.7845,0,0,0,0,0,0,0,0,0,0,0,0,0,-2.7873,-2.7874,-2.7876,-2.7876,-2.7876,-2.787,-2.7869,-2.7869,-2.7853,-2.7852,-2.7852,-2.7851,-2.7844,-2.7845,-2.7845,0,0,0,0,0,0,0,0,0,0,0,0,0,-2.7872,-2.7874,-2.7876,-2.7867,-2.7866,-2.787,-2.7869,-2.7869,-2.7853,-2.7852,-2.7852,-2.7851,-2.7844,-2.7845,-2.7845,-2.7857,0,0,-2.7845,-2.7845,0,0,0,0,0,0,0,0,-2.7872,-2.7872,-2.7868,-2.7868,-2.7867,-2.7861,-2.7866,-2.7865,-2.7853,-2.7858,-2.7852,-2.7851,-2.785,-2.785,-2.785,-2.7856,-2.7856,-2.7845,-2.7845,-2.7846,-2.7846,0,0,0,0,0,0,0,-2.7872,-2.7872,-2.7874,-2.7868,-2.7867,-2.7863,-2.7862,-2.7866,-2.7857,-2.7857,-2.7856,-2.7856,-2.785,-2.785,-2.785,-2.7856,-2.7845,-2.7846,-2.7846,-2.7846,-2.787,-2.7871,0,0,0,0,0,0,-2.7873,-2.7872,-2.7874,-2.7873,-2.7868,-2.7863,-2.7862,-2.7864,-2.7857,-2.7856,-2.7856,-2.7855,-2.785,-2.785,-2.7849,-2.7862,-2.7846,-2.7846,-2.7846,-2.787,-2.7871,-2.7871,0,0,0,0,0,0,-2.7873,-2.7874,-2.7874,-2.7872,-2.7872,-2.7864,-2.7865,-2.7864,-2.7864,-2.7856,-2.7854,-2.7858,-2.7849,-2.7849,-2.7855,-2.7861,-2.7846,-2.7846,-2.7869,-2.787,-2.7871,-2.7888,0,0,0,0,0,0,-2.7873,-2.7874,-2.7878,-2.7873,-2.7872,-2.788,-2.7866,-2.7864,-2.7864,-2.7862,-2.7857,-2.7856,-2.7849,-2.7855,-2.7855,-2.7861,-2.7846,-2.7869,-2.787,-2.7871,-2.7886,-2.7889,-2.7891,0,0,0,0,0,-2.7873,-2.7884,-2.7879,-2.7879,-2.7878,-2.788,-2.788,-2.7872,-2.7865,-2.7869,-2.7864,-2.7856,-2.7861,-2.7855,-2.7856,-2.7862,-2.7868,-2.7869,-2.7871,-2.7885,-2.7888,-2.7891,0,0,0,0,0,0,-2.789,-2.7883,-2.7877,-2.7886,-2.7884,-2.7877,-2.7882,-2.7876,-2.7875,-2.7874,-2.7864,-2.7863,-2.7869,-2.7867,-2.786,-2.7873,-2.7863,-2.7864,-2.7874,-2.7877,-2.7879,-2.7879,-2.7846,0,0,0,0,0,-2.7895,-2.7898,-2.7891,-2.7899,-2.7898,-2.7891,-2.7891,-2.7886,-2.7883,-2.7882,-2.7877,-2.7875,-2.7876,-2.7876,-2.7877,-2.7886,-2.7884,-2.7891,-2.7893,-2.7895,-2.7896,-2.79,-2.7902,-2.7875,-2.7875,-2.7875,0,0,-2.7905,-2.7901,-2.7903,-2.7903,-2.79,-2.7903,-2.789,-2.7894,-2.7895,-2.7882,-2.7887,-2.7884,-2.788,-2.7887,-2.789,-2.7885,-2.7903,-2.7897,-2.7898,-2.7898,-2.7901,-2.7904,-2.7906,-2.7876,-2.7876,-2.7876,0,0,-2.7924,-2.7922,-2.7928,-2.7926,-2.7922,-2.7917,-2.7919,-2.7913,-2.791,-2.7915,-2.7905,-2.7907,-2.7909,-2.7907,-2.7906,-2.7923,-2.7915,-2.7924,-2.7936,-2.7939,-2.7941,-2.7943,-2.7948,-2.795,-2.7925,-2.7925,-2.7925,0,-2.7936,-2.794,-2.7932,-2.7936,-2.7935,-2.7924,-2.793,-2.7928,-2.7925,-2.7925,-2.7919,-2.7921,-2.7918,-2.7924,-2.7928,-2.7928,-2.7929,-2.7924,-2.7942,-2.7943,-2.7945,-2.795,-2.7952,-2.7926,-2.7926,-2.7926,-2.7926,0,-2.7955,-2.7958,-2.7963,-2.796,-2.796,-2.7965,-2.7957,-2.7959,-2.7953,-2.7948,-2.7952,-2.7948,-2.7947,-2.7949,-2.7943,-2.7954,-2.795,-2.7944,-2.7933,-2.7949,-2.7953,-2.7955,-2.7928,-2.7927,-2.7927,-2.7927,0,0,-2.7984,-2.7976,-2.7978,-2.7976,-2.7972,-2.7973,-2.7977,-2.7977,-2.7977,-2.7976,-2.7978,-2.798,-2.7973,-2.7972,-2.7967,-2.797,-2.7983,-2.7963,-2.7962,-2.7965,-2.7993,-2.7997,-2.7999,-2.7978,-2.7978,-2.7979,-2.7993,0,-2.8,-2.8007,-2.7999,-2.8007,-2.8009,-2.7998,-2.8002,-2.7999,-2.7995,-2.7996,-2.7991,-2.7992,-2.7984,-2.7983,-2.7986,-2.7981,-2.7988,-2.798,-2.7979,-2.7979,-2.7979,-2.8002,-2.8007,-2.802,-2.7994,-2.7995,-2.7995,0,-2.802,-2.8019,-2.8027,-2.8022,-2.8022,-2.8025,-2.8023,-2.8025,-2.8021,-2.8018,-2.8017,-2.8009,-2.8012,-2.8003,-2.8007,-2.8002,-2.8001,-2.7999,-2.7999,-2.7998,-2.7987,-2.8,-2.8024,-2.8026,-2.7998,-2.7998,-2.7997,0,-2.8039,-2.804,-2.8044,-2.8043,-2.8037,-2.8039,-2.8037,-2.8033,-2.8033,-2.8031,-2.8031,-2.803,-2.8029,-2.8028,-2.8021,-2.8015,-2.8025,-2.8015,-2.8021,-2.8021,-2.8023,-2.8023,-2.8046,-2.8025,-2.8025,-2.8025,-2.8025,0,-2.8057,-2.8062,-2.8052,-2.8055,-2.806,-2.8052,-2.8057,-2.8053,-2.805,-2.8051,-2.8043,-2.8044,-2.8035,-2.8035,-2.803,-2.8033,-2.8033,-2.803,-2.8028,-2.803,-2.803,-2.8028,-2.8027,-2.8025,-2.8025,-2.8025,-2.8025,0,-2.8078,-2.8072,-2.8076,-2.807,-2.8068,-2.8072,-2.8067,-2.8069,-2.8064,-2.8066,-2.8066,-2.8058,-2.8058,-2.8051,-2.805,-2.8046,-2.8051,-2.8048,-2.8052,-2.8051,-2.8056,-2.8056,-2.8079,-2.8081,-2.8059,-2.806,-2.806,0,-2.809,-2.8093,-2.8088,-2.8088,-2.8086,-2.8087,-2.8086,-2.8078,-2.8078,-2.8074,-2.8077,-2.8076,-2.8075,-2.8075,-2.8069,-2.8068,-2.8064,-2.8072,-2.8064,-2.8065,-2.8063,-2.8062,-2.8062,-2.8074,-2.8074,-2.8074,-2.8075,0,-2.8111,-2.8107,-2.8107,-2.8106,-2.8106,-2.8104,-2.8102,-2.8103,-2.8094,-2.8094,-2.8094,-2.8093,-2.8092,-2.8091,-2.8088,-2.8085,-2.8078,-2.8077,-2.8078,-2.808,-2.8081,-2.8079,-2.8056,-2.8077,-2.8076,-2.8076,-2.8076,-2.8076,-2.8127,-2.8129,-2.8125,-2.8125,-2.8122,-2.8121,-2.8122,-2.8117,-2.8117,-2.8115,-2.8111,-2.8111,-2.8107,-2.8103,-2.8101,-2.81,-2.8096,-2.8098,-2.8098,-2.8099,-2.8099,-2.8083,-2.81,-2.81,-2.81,-2.81,-2.81,0,-2.8146,-2.8143,-2.8143,-2.814,-2.814,-2.8134,-2.8131,-2.8131,-2.8132,-2.8129,-2.8128,-2.8127,-2.8126,-2.8121,-2.8119,-2.812,-2.8116,-2.8119,-2.8119,-2.8118,-2.8104,-2.8102,-2.8122,-2.8122,-2.8122,-2.8122,-2.8122,-2.8122,-2.8156,-2.8159,-2.8155,-2.8157,-2.8154,-2.8154,-2.8153,-2.8151,-2.8148,-2.8148,-2.8147,-2.8144,-2.8139,-2.8137,-2.8136,-2.8134,-2.8133,-2.8137,-2.8134,-2.8121,-2.8119,-2.8117,-2.8115,-2.8138,-2.8138,-2.8148,-2.8148,-2.8148]}]]